Regional Weather Roundup
Issued by NWS

Home | Current Version | Previous Version | Graphics & Text | Print | Product List | Glossary On
Versions: 1 2 3 4 5 6 7 8 9 10 11 12 13 14 15 16 17 18 19 20 21 22 23 24 25 26 27 28 29 30 31 32 33 34 35 36 37 38 39 40 41 42 43 44 45 46 47 48 49 50
019
ASUS43 KBIS 272110
RWRND

NORTH DAKOTA REGIONAL WEATHER ROUNDUP
NATIONAL WEATHER SERVICE BISMARCK ND
400 PM CDT TUE JUN 27 2017

NOTE: "FAIR" INDICATES FEW OR NO CLOUDS BELOW 12,000 FEET WITH NO
SIGNIFICANT WEATHER AND/OR OBSTRUCTIONS TO VISIBILITY.


NDZ001>003-009>011-017-272200-
NORTHWEST NORTH DAKOTA

CITY           SKY/WX    TMP DP  RH WIND       PRES   REMARKS
WILLISTON      CLOUDY    90  48  23 VRB7      29.54F
MINOT          PTSUNNY   86  55  34 S17G26    29.55F
MINOT AFB      CLOUDY    84  55  37 SW10      29.54F
$$

NDZ018>021-031>035-040>046-272200-
SOUTHWEST NORTH DAKOTA

CITY           SKY/WX    TMP DP  RH WIND       PRES   REMARKS
BISMARCK       MOSUNNY   86  60  41 S17G30    29.58F
DICKINSON      CLOUDY    87  47  24 SW9       29.53F
GARRISON         N/A     81  58  45 S15       29.56S
HETTINGER ARPT PTSUNNY   89  46  22 W17G23    29.56F
$$

NDZ004>008-012>016-024-026-027-054-272200-
NORTHEAST NORTH DAKOTA

CITY           SKY/WX    TMP DP  RH WIND       PRES   REMARKS
GRAND FORKS    MOSUNNY   80  45  28 S23G32    29.69F
GRND FRKS AFB  SUNNY     79  46  30 S21G28    29.69F
DEVILS LAKE    SUNNY     78  50  37 S21G26    29.65F
$$

NDZ022-023-025-028>030-036>039-047>053-272200-
SOUTHEAST NORTH DAKOTA

CITY           SKY/WX    TMP DP  RH WIND       PRES   REMARKS
FARGO          CLOUDY    75  45  34 S25G31    29.74F
JAMESTOWN      SUNNY     81  47  30 S25G33    29.66F
$$





USA.gov is the U.S. government's official web portal to all federal, state and local government web resources and services.